{"data":{"norad_id":66040,"intl_designator":"2025-233H","name":"QIANFAN-98","alt_names":[],"object_type":"PAYLOAD","status":"ACTIVE","operator":null,"country":"PRC","launch_date":"2025-10-17","launch_site_code":"TAISC","launch_vehicle":null,"mission":null,"orbit_class":"UNKNOWN","rcs_meters":null,"size_class":null,"mass_kg":null,"dimensions":null,"purposes":[],"wikipedia_slug":null,"has_3d_model":false,"image_url":null,"decayed_at":null,"tle_current":{"epoch":"2026-09-20T09:44:48.931296Z","epoch_age_seconds":148460,"freshness":"FRESH","line1":"1 66040U 25233H   26263.40612189  .00000077  00000+0  10045-3 0  9997","line2":"2 66040  89.0049  33.2875 0001651 113.3799 246.7526 13.51029391 46187","mean_motion":13.51029391,"eccentricity":0.0001651,"inclination_deg":89.0049,"raan_deg":33.2875,"arg_perigee_deg":113.3799,"mean_anomaly_deg":246.7526,"bstar":0.00010045,"rev_number":4618,"period_min":106.58539404048,"perigee_km":1067.244149572,"apogee_km":1069.7030203872,"semimajor_km":7446.6105849796,"source":"CELESTRAK","updated_at":"2026-09-21T09:00:15.733306Z"}}}